Other Surface Observations
Issued by NWS Charleston, SC

Home | Current Version | Previous Version | Text Only | Print | Product List | Glossary On
Versions: 1 2 3 4 5 6 7 8 9 10 11 12 13 14 15 16 17 18 19 20 21 22 23 24 25 26 27 28 29 30 31 32 33 34 35 36 37 38 39 40 41 42 43 44 45 46 47 48 49 50
000
SXUS52 KCHS 171127
OSOCHS

MARINE OBSERVATIONS
NATIONAL WEATHER SERVICE CHARLESTON SC
700 AM EDT THU AUG 17 2017

...DOWNTOWN CHARLESTON AND HARBOR...

CITY           SKY/WX    TMP DP  RH WIND       PRES   REMARKS
WATERFRONT PRK   N/A    N/A N/A N/A CALM      29.85R

...LAKE MOULTRIE...

CITY           SKY/WX    TMP DP  RH WIND       PRES   REMARKS
PINOPOLIS        N/A     81  79  94 SW5       29.94R

...LAKE AND SUPPLEMENTAL COASTAL OBSERVATIONS...

STATION/POSITION TIME  TEMP    WIND        PRES    WAVE   SWELL
                       AIR SEA DIR/SP/G            HT/PER HT/PER/DIR
                 (UTC) (F)     (DEG/KT/KT) (MB)    (FT/S) (FT/S/D)
FORT PULASKI     1100   82 86  270/  4/  5 1017.2
SAPELO ISLAND    1100   82        CALM     1017.0
WINYAH BAY       1045   78     280/  1     1016.0S
LAKE MURRAY      1120   81      CALM  /  1 1015.9
ACE BASIN NERRS  1045   79        CALM     1016.0S


...C-MAN AND BUOY OBSERVATIONS...

STATION/POSITION TIME  TEMP    WIND        PRES    WAVE   SWELL
                       AIR SEA DIR/SP/G            HT/PER HT/PER/DIR
                 (UTC) (F)     (DEG/KT/KT) (MB)    (FT/S) (FT/S/D)
BUOY 41004       1110   84 83  240/  6/  8 1016.3
BUOY 41008       1050   84 84  250/  8/ 10 1016.4R   2/ 4   2/170/ 4
FOLLY BEACH CMAN 1100   82     240/  4/  4 1017.0R
CAPERS NS BUOY   1108   82 85  250/  6/  8 1016.1R
FRIPP NS BUOY    1108   85     280/  6/  8 1016.4R
5E ST. MARYS GA  1030      83                N/A     1/ 9


STATION/POSITION TIME  TEMP    WIND        PRES    WAVE   SWELL
                       AIR SEA DIR/SP/G            HT/PER HT/PER/DIR
                 (UTC) (F)     (DEG/KT/KT) (MB)    (FT/S) (FT/S/D)
FRYING PAN BUOY  1110   83 84  190/  6/  8 1016.5
BUOY 41025       1050   79 82  360/  8/  8 1016.9R   2/ 9   2/110/ 9
CAPE LOOKOUT NC  1100   80      70/  4/  5 1016.7R
BUOY 41002       1050   84 84  250/  8/ 10 1017.3R   3/ 6   3/240/ 6
BUOY 41010       1110   85 86  260/  8/ 12 1018.3
ST AUGUSTINE FL  1100   79 80  330/  4/  5 1018.6R

$$




USA.gov is the U.S. government's official web portal to all federal, state and local government web resources and services.